Location: Newark
(22.3060°N, 114.2134°E)
Time: 07:35:54
(UTC+00:00)

Explorer 11/Cluster Stage 4 - Pass Details

Date: 05 August 2021
Orbit: 467 x 1256 km, 28.8° (Epoch: 24 September)

Event Time Altitude Azimuth Distance (km) Brightness Sun altitude
Rises 00:27:37 0° 269° (W) 3,770 9.6 33.2°
Reaches altitude 10° 00:30:14 10° 273° (W) 2,918 9.1 33.8°
Maximum altitude 00:37:31 59° 352° (N) 1,365 8.3 35.5°
Drops below altitude 10° 00:45:38 10° 70° (ENE) 3,226 10.9 37.4°
Sets 00:48:40 0° 74° (ENE) 4,191 11.2 38.1°
